STARLINK-33700 (63484 NORAD) Tracking and Keplerian Element Data

This shows tracking and keplerian element data for the satellite.

Feedback or suggestion? Click here.




ElementValue
Catalog63484
NameSTARLINK-33700
Epoch Orbit4079
Epoch Day354.02368627
Epoch Year2025
RAAN349.5993
Inclination43.0014
Eccentricity2.05E-05
Argument of Perigee253.6445
Mean Anonmoly106.4384
Mean Motion15.27583927
Decay Rate0.0002121
L11 63484U 25070AA 25354.02368627 .00021210 00000+0 77795-3 0 9995
L22 63484 43.0014 349.5993 0000205 253.6445 106.4384 15.27583927 40792



Live tracking and technical data element details for STARLINK-33700 (NORAD 63484). STARLINK-33700 can be tracked NOW for your location showing map with azimuth and elevation plus other details from your city location.







IsCatalogInMostPopularTable: catalog: 63484, numindb: 2
Update: records affected: 1



GetName: 63484 STARLINK-33700

Hit Count: updated at: Sat, 07 Feb 2026 08:46:04 GMT